Regional Weather Roundup
Issued by NWS

Home | Current Version | Previous Version | Text Only | Print | Product List | Glossary On
Versions: 1 2 3 4 5 6 7 8 9 10 11 12 13 14 15 16 17 18 19 20 21 22 23 24 25 26
000
ASUS42 KTBW 210217
RWRFL
FLORIDA REGIONAL WEATHER ROUNDUP
NATIONAL WEATHER SERVICE TAMPA BAY RUSKIN FL
1000 PM EDT THU JUL 20 2017

NOTE: "FAIR" INDICATES FEW OR NO CLOUDS BELOW 12,000 FEET WITH NO
SIGNIFICANT WEATHER AND/OR OBSTRUCTIONS TO VISIBILITY.

FLZ001>010-012>015-112-114-115-210300-
PANHANDLE FLORIDA

CITY           SKY/WX    TMP DP  RH WIND       PRES   REMARKS
PENSACOLA      PTCLDY    83  76  79 E3        30.02R
PENSACOLA NAS  MOCLDY    78  77  96 CALM      30.01R
MILTON NAS     MOCLDY    81  76  84 S6        30.02F
CRESTVIEW      CLOUDY    80  74  81 CALM      30.03F
DUKE FIELD     PTCLDY    79  74  86 CALM      30.01F
VALPARAISO     PTCLDY    80  75  82 CALM      30.01S
MARY ESTHER    PTCLDY    82  79  91 CALM      30.00F
PANAMA CITY    FAIR      79  77  94 SE3       30.01S
TYNDALL AFB    PTCLDY    83  78  87 S3        30.02S
APALACHICOLA   MOCLDY    83  78  85 W3        30.03S

STATION/POSITION SKY/WX   TEMP    WIND        PRES    WAVE   SWELL
                          AIR SEA DIR/SP/G            HT/PER HT/PER
                          (F)     (DEG/KT/KT) (MB)    (FT/S) (FT/S)
30.1N   87.6W              87 87   CALM  /  2 1016.2R   1/ 4
29.2N   88.2W              85 87  190/  6/  6 1017.0
28.8N   86.0W              84 85  220/  4/  4 1016.8S   1
PANAMA CITY BEAC           84     220/  4/  6 1016.8R
TOWER C          NOT AVBL
28.5N   84.5W              85 88  200/  4/  6 1017.2R   1

$$
FLZ011-016>038-118-127-128-134-139-239-210300-
NORTH FLORIDA

CITY           SKY/WX    TMP DP  RH WIND       PRES   REMARKS
MARIANNA       CLOUDY    81  75  82 S3        30.01S
TALLAHASSEE    MOCLDY    83  75  77 S9        30.04R THUNDER
PERRY          CLOUDY    78  75  90 CALM      30.05S
LIVE OAK       CLEAR     77  77 100 NE6       30.07S
CROSS CITY     CLOUDY    78  76  95 SE12G17   30.12R
LAKE CITY      LGT RAIN  73  72  94 SE3       30.07R
GAINESVILLE    TSTM      71  69  93 S12       30.07F
WILLISTON      CLEAR     75  70  83 NW9       30.12R
PALATKA        FAIR      77  77 100 NW7       30.05F
MAYPORT NAS    CLOUDY    80  74  81 S6        30.05S
JACKSONVILLE   MOCLDY    77  67  71 VRB3      30.04R
JAX NAS        MOCLDY    83  69  62 SE10      30.04F
JAX CECIL      PTCLDY    75  68  78 CALM      30.04F
FERNANDINA BEA FAIR      79  72  78 CALM      30.04R
ST AUGUSTINE   CLOUDY    81  75  82 MISG      30.06F
PALM COAST     FAIR      76  73  88 CALM      30.05S

STATION/POSITION SKY/WX   TEMP    WIND        PRES    WAVE   SWELL
                          AIR SEA DIR/SP/G            HT/PER HT/PER
                          (F)     (DEG/KT/KT) (MB)    (FT/S) (FT/S)
SHELL POINT      NOT AVBL
KEATON BEACH               78     100/  4/  5 1016.9F
CEDAR KEY                  75      70/ 16/ 18 1019.2R
FERNANDINA                 81 82   90/  3/  4 1018.1S
30.7N   81.3W                 83                N/A     2/ 8
MAYPORT                    81 79  210/  2/  3 1017.9F
31.4N   80.9W              82 82  200/  8/ 10 1017.2R   2/ 9   2/ 9
ST AUGUSTINE               81 83  230/  6/  9 1017.7F

$$
FLZ040-043>046-052-053-057-058-063-144-210300-
INTERIOR CENTRAL FLORIDA

CITY           SKY/WX    TMP DP  RH WIND       PRES   REMARKS
OCALA          MOCLDY    73  72  96 N6        30.09R
THE VILLAGES     N/A     77  75  94 CALM      29.95F
LEESBURG       MOCLDY    77  72  84 S3        30.06F
SANFORD        CLOUDY    74  71  91 CALM      30.06R
ORLANDO INTL   LGT RAIN  74  73  97 CALM      30.08R
KISSIMMEE      CLOUDY    76  74  93 CALM      30.08R
WINTER HAVEN   CLOUDY    77  73  87 N8        30.09R
LAKELAND       PTCLDY    75  75 100 CALM      30.07R
BARTOW         FAIR      75  75 100 W5        30.06R
SEBRING        FAIR      78  75  88 SW3       30.05S
OKEECHOBEE     CLEAR     75  73  94 S3        30.04F

$$
FLZ041-047-054-059-064-141-147-210300-
EAST CENTRAL FLORIDA

CITY           SKY/WX    TMP DP  RH WIND       PRES   REMARKS
DAYTONA BEACH  CLOUDY    76  72  87 SW6       30.06R
DELAND         CLOUDY    75  72  88 CALM      30.05F
NEW SMYRNA BEA PTCLDY    75  70  83 SW6       30.07R
CAPE CANAVERAL CLOUDY    76  73  91 SW8       30.05R
PATRICK AFB    CLOUDY    78  74  87 SW3       30.06R
MELBOURNE      PTCLDY    79  76  90 CALM      30.07R
VERO BEACH     CLOUDY    79  75  87 CALM      30.07R
FT PIERCE      PTCLDY    77  74  90 CALM      30.06R

STATION/POSITION SKY/WX   TEMP    WIND        PRES    WAVE   SWELL
                          AIR SEA DIR/SP/G            HT/PER HT/PER
                          (F)     (DEG/KT/KT) (MB)    (FT/S) (FT/S)
28.5N   80.2W              82 83  190/  4/  6 1019.1
28.9N   78.5W              83 85  160/ 10/ 14 1018.3R   3/ 8   2/ 8
TRIDENT PIER               79 85  180/  5/  8 1019.3R
28.4N   80.5W                 83                N/A     1/15
27.5N   80.2W                 83                N/A     2/ 8

$$
FLZ050-056-061-142-242-148-248-149-249-151-251-155-255-
160-260-210300-
WEST CENTRAL FLORIDA

CITY           SKY/WX    TMP DP  RH WIND       PRES   REMARKS
CRYSTAL RIVER  FAIR      73  72  94 CALM      30.04F THUNDER
INVERNESS      FAIR      73  73 100 CALM      30.04F
BROOKSVILLE    LGT RAIN  76  72  87 NE7       30.06F
CLEARWATER AIR FAIR      79  73  83 CALM      30.05F
ST PETE CLEARW CLOUDY    82  74  76 SW5       30.05S
TAMPA INTL     MOCLDY    81  71  71 NE5       30.07R
TAMPA EXEC     PTCLDY    77  73  88 CALM      30.06R
PLANT CITY     PTCLDY    77  77 100 CALM      30.09R
MACDILL AFB    PTCLDY    78  77  95 E3        30.06R
PETER O KNIGHT PTCLDY    79  79 100 NE5       30.06R
ST PETERSBURG  PTCLDY    83  76  79 CALM      30.03S
SARASOTA       CLEAR     81  76  84 NE6       30.04R
VENICE         FAIR      84  75  74 CALM      30.05S

STATION/POSITION SKY/WX   TEMP    WIND        PRES    WAVE   SWELL
                          AIR SEA DIR/SP/G            HT/PER HT/PER
                          (F)     (DEG/KT/KT) (MB)    (FT/S) (FT/S)
27.3N   84.2W                 88                N/A     1/ 7
CLEARWATER BEACH           84 89  110/  6/ 10 1018.0R
MIDDLE TAMPA BAY           81     170/  6/  8 1017.8F
VENICE                     86 90  220/  3/  4 1017.9R

$$
FLZ066-069-070-075>078-162-262-165-265-210300-
SOUTHWEST FLORIDA AND KEYS

CITY           SKY/WX    TMP DP  RH WIND       PRES   REMARKS
PUNTA GORDA    PTCLDY    77  71  82 SE6       30.07S
FT MYERS       CLOUDY    81  76  84 CALM      30.05F
SOUTHWEST INTL PTCLDY    82  76  81 S8        30.06F
NAPLES         CLEAR     84  76  76 CALM      30.06S
MARCO ISLAND   MOCLDY    82  77  83 CALM      30.07S
IMMOKALEE        N/A     77  77 100 CALM      30.08S
MARATHON       CLEAR     86  78  77 E5        30.06S HX  98
KEY WEST NAS   PTCLDY    85  79  82 E3        30.06R HX  98
KEY WEST INTL  PTCLDY    86  76  71 E5        30.06R HX  96

STATION/POSITION SKY/WX   TEMP    WIND        PRES    WAVE   SWELL
                          AIR SEA DIR/SP/G            HT/PER HT/PER
                          (F)     (DEG/KT/KT) (MB)    (FT/S) (FT/S)
NAPLES                        89  210/  2/  3 1018.1R
DRY TORTUGAS               86     110/  3/  4 1017.7F
SAND KEY                   85     120/  4/  5 1018.4R
LONG KEY                   87 92  150/  5/  6 1017.9R
MOLASSES REEF              85 86  120/  5/  6 1018.6R

$$
FLZ067-068-071>074-168-172>174-210300-
SOUTHEAST FLORIDA

CITY           SKY/WX    TMP DP  RH WIND       PRES   REMARKS
W PALM BEACH   CLOUDY    81  75  82 S6        30.07F
BOCA RATON     CLEAR     81  73  78 S6          N/A
FT LAUDER-EXEC CLOUDY    82  73  74 CALM      30.07S
FT LAUDERDALE  MOCLDY    83  77  82 S5        30.06S
POMPANO BEACH  CLOUDY    83  76  79 SE3       30.07S
PEMBROKE PINES CLOUDY    84  76  76 S3        30.09R
OPA LOCKA      CLEAR     82  78  88 SE3       30.08S
MIAMI          MOCLDY    85  75  72 SE7       30.07S
WEST KENDALL   CLEAR     85  75  72 SE5       30.07S
HOMESTEAD      CLEAR     81  79  94 SE3       30.07S

STATION/POSITION SKY/WX   TEMP    WIND        PRES    WAVE   SWELL
                          AIR SEA DIR/SP/G            HT/PER HT/PER
                          (F)     (DEG/KT/KT) (MB)    (FT/S) (FT/S)
PORT EVERGLADES            84     180/  4/  7 1018.4R
VIRGINIA KEY               84 88  120/  2/  4 1017.9R
LAKE WORTH                        180/  9/ 10   N/A
FOWEY ROCKS                85 88  150/  8/  9 1019.1R
SETTLEMENT POINT           82     150/  3/  4 1018.6R

$$





USA.gov is the U.S. government's official web portal to all federal, state and local government web resources and services.